| time (UTC) | temp F | wind direction | speed MPH | gust MPH | rain 1hr in | rain 24hr in | rain mn in | humidity % | barometer mb |
| 20260904075051 | 77 | 319 | 8.0 | 9.0 | 0.00 | 0.00 | 0.00 | 1018.8 | |
| 20260904074053 | 76 | 273 | 7.0 | 6.0 | 0.00 | 0.00 | 0.00 | 1018.8 | |
| 20260904073053 | 76 | 295 | 8.0 | 8.0 | 0.00 | 0.00 | 0.00 | 1018.8 | |
| 20260904072056 | 75 | 316 | 8.0 | 7.0 | 0.00 | 0.00 | 0.00 | 1018.8 | |
| 20260904071055 | 74 | 315 | 7.0 | 6.0 | 0.00 | 0.00 | 0.00 | 1018.9 | |
| 20260904070056 | 74 | 305 | 4.0 | 7.0 | 0.00 | 0.00 | 0.00 | 1019.0 | |
| 20260904065051 | 73 | 340 | 5.0 | 8.0 | 0.00 | 0.00 | 0.00 | 1019.0 | |
| 20260904064053 | 72 | 311 | 5.0 | 5.0 | 0.00 | 0.00 | 0.00 | 1018.9 | |
| 20260904063048 | 72 | 300 | 8.0 | 9.0 | 0.00 | 0.00 | 0.00 | 1019.0 | |
| 20260904062051 | 72 | 312 | 6.0 | 3.0 | 0.00 | 0.00 | 0.00 | 1018.8 | |
| 20260904061053 | 72 | 283 | 5.0 | 6.0 | 0.00 | 0.00 | 0.00 | 1018.7 | |
| 20260904060056 | 72 | 290 | 5.0 | 7.0 | 0.00 | 0.00 | 0.00 | 1018.7 | |
| 20260904055055 | 72 | 281 | 5.0 | 5.0 | 0.00 | 0.00 | 0.00 | 1018.5 | |
| 20260904054050 | 72 | 329 | 4.0 | 2.0 | 0.00 | 0.00 | 0.00 | 1018.5 | |
| 20260904053053 | 72 | 269 | 4.0 | 4.0 | 0.00 | 0.00 | 0.00 | 1018.6 | |
| 20260904052055 | 72 | 346 | 0.0 | 0.0 | 0.00 | 0.00 | 0.00 | 1018.7 | |
| 20260904051058 | 72 | 0 | 2.0 | 1.0 | 0.00 | 0.00 | 0.00 | 1018.8 | |
| 20260904050051 | 73 | 103 | 1.0 | 0.0 | 0.00 | 0.00 | 0.00 | 1018.7 | |
| 20260904045053 | 73 | 125 | 3.0 | 2.0 | 0.00 | 0.00 | 0.00 | 1018.7 | |
| 20260904044056 | 73 | 232 | 0.0 | 0.0 | 0.00 | 0.00 | 0.00 | 1018.7 | |
| 20260904043049 | 73 | 173 | 1.0 | 3.0 | 0.00 | 0.00 | 0.00 | 1018.8 | |
| 20260904042050 | 73 | 300 | 3.0 | 2.0 | 0.00 | 0.00 | 0.00 | 1018.9 | |
| 20260904041048 | 73 | 290 | 2.0 | 6.0 | 0.00 | 0.00 | 0.00 | 1019.0 | |
| 20260904040048 | 73 | 302 | 3.0 | 3.0 | 0.00 | 0.00 | 0.00 | 1019.0 | |
| 20260904035047 | 73 | 273 | 4.0 | 3.0 | 0.00 | 0.00 | 0.00 | 1019.2 | |
| 20260904034049 | 73 | 291 | 6.0 | 3.0 | 0.00 | 0.00 | 0.00 | 1019.3 | |
| 20260904033048 | 73 | 278 | 3.0 | 3.0 | 0.00 | 0.00 | 0.00 | 1019.4 | |
| 20260904032042 | 73 | 322 | 6.0 | 6.0 | 0.00 | 0.00 | 0.00 | 1019.4 | |
| 20260904031132 | 73 | 333 | 8.0 | 7.0 | 0.00 | 0.00 | 0.00 | 1019.4 | |
| 20260904031044 | 73 | 333 | 8.0 | 7.0 | 0.00 | 0.00 | 0.00 | 1019.4 | |
| 20260904030047 | 73 | 343 | 5.0 | 2.0 | 0.00 | 0.00 | 0.00 | 1019.4 | |
| 20260904025217 | 73 | 323 | 5.0 | 4.0 | 0.00 | 0.00 | 0.00 | 1019.5 | |
| 20260904025049 | 73 | 323 | 5.0 | 4.0 | 0.00 | 0.00 | 0.00 | 1019.5 | |
| 20260904024051 | 73 | 318 | 6.0 | 7.0 | 0.00 | 0.00 | 0.00 | 1019.5 | |
| 20260904023054 | 74 | 311 | 5.0 | 6.0 | 0.00 | 0.00 | 0.00 | 1019.5 | |
| 20260904022057 | 74 | 305 | 5.0 | 5.0 | 0.00 | 0.00 | 0.00 | 1019.5 | |
| 20260904021051 | 74 | 339 | 6.0 | 5.0 | 0.00 | 0.00 | 0.00 | 1019.5 | |
| 20260904020053 | 74 | 262 | 5.0 | 4.0 | 0.00 | 0.00 | 0.00 | 1019.6 | |
| 20260904015054 | 74 | 312 | 5.0 | 3.0 | 0.00 | 0.00 | 0.00 | 1019.8 | |
| 20260904015035 | 75 | 291 | 4.0 | 4.0 | 0.00 | 0.00 | 0.00 | 1019.8 | |
| 20260904014057 | 75 | 291 | 4.0 | 4.0 | 0.00 | 0.00 | 0.00 | 1019.8 | |
| 20260904013056 | 74 | 307 | 4.0 | 3.0 | 0.00 | 0.00 | 0.00 | 1019.9 | |
| 20260904012052 | 75 | 276 | 3.0 | 4.0 | 0.00 | 0.00 | 0.00 | 1020.0 | |
| 20260904011052 | 74 | 311 | 5.0 | 5.0 | 0.00 | 0.00 | 0.00 | 1020.0 | |
| 20260904010049 | 75 | 287 | 4.0 | 2.0 | 0.00 | 0.00 | 0.00 | 1020.1 | |
| 20260904005050 | 75 | 319 | 5.0 | 3.0 | 0.00 | 0.00 | 0.00 | 1020.0 | |
| 20260904004047 | 76 | 326 | 1.0 | 2.0 | 0.00 | 0.00 | 0.00 | 1020.0 | |
| 20260904003046 | 75 | 323 | 1.0 | 0.0 | 0.00 | 0.00 | 0.00 | 1020.1 | |
| 20260904002049 | 76 | 311 | 2.0 | 1.0 | 0.00 | 0.00 | 0.00 | 1020.1 | |
| 20260904001049 | 76 | 347 | 1.0 | 3.0 | 0.00 | 0.00 | 0.00 | 1020.2 | |
| 20260904000052 | 76 | 229 | 0.0 | 0.0 | 0.00 | 0.00 | 0.00 | 1020.2 | |
| 20260903235047 | 76 | 229 | 0.0 | 0.0 | 0.00 | 0.00 | 0.00 | 1020.2 | |
| 20260903234047 | 76 | 200 | 1.0 | 0.0 | 0.00 | 0.00 | 0.00 | 1020.3 | |
| 20260903233048 | 77 | 285 | 2.0 | 1.0 | 0.00 | 0.00 | 0.00 | 1020.4 | |
| 20260903232051 | 77 | 221 | 1.0 | 1.0 | 0.00 | 0.00 | 0.00 | 1020.4 | |
| 20260903231053 | 77 | 318 | 0.0 | 0.0 | 0.00 | 0.00 | 0.00 | 1020.4 | |
| 20260903230056 | 77 | 336 | 1.0 | 1.0 | 0.00 | 0.00 | 0.00 | 1020.4 | |
| 20260903225053 | 77 | 333 | 2.0 | 1.0 | 0.00 | 0.00 | 0.00 | 1020.4 | |
| 20260903224047 | 77 | 312 | 2.0 | 2.0 | 0.00 | 0.00 | 0.00 | 1020.4 | |
| 20260903223049 | 77 | 293 | 0.0 | 0.0 | 0.00 | 0.00 | 0.00 | 1020.4 | |
| 20260903222048 | 78 | 276 | 0.0 | 0.0 | 0.00 | 0.00 | 0.00 | 1020.4 | |
| 20260903221051 | 78 | 304 | 2.0 | 2.0 | 0.00 | 0.00 | 0.00 | 1020.4 | |
| 20260903220053 | 78 | 225 | 0.0 | 0.0 | 0.00 | 0.00 | 0.00 | 1020.2 | |
| 20260903215056 | 78 | 350 | 0.0 | 0.0 | 0.00 | 0.00 | 0.00 | 1020.4 | |
| 20260903214058 | 78 | 323 | 1.0 | 1.0 | 0.00 | 0.00 | 0.00 | 1020.4 | |
| 20260903213052 | 79 | 233 | 2.0 | 2.0 | 0.00 | 0.00 | 0.00 | 1020.4 | |
| 20260903212055 | 79 | 228 | 3.0 | 2.0 | 0.00 | 0.00 | 0.00 | 1020.5 | |
| 20260903211057 | 79 | 248 | 2.0 | 2.0 | 0.00 | 0.00 | 0.00 | 1020.5 | |
| 20260903210059 | 79 | 139 | 3.0 | 2.0 | 0.00 | 0.00 | 0.00 | 1020.4 | |
| 20260903205101 | 79 | 233 | 1.0 | 2.0 | 0.00 | 0.00 | 0.00 | 1020.5 | |
| 20260903204104 | 79 | 203 | 2.0 | 2.0 | 0.00 | 0.00 | 0.00 | 1020.5 | |
| 20260903203101 | 79 | 198 | 5.0 | 3.0 | 0.00 | 0.00 | 0.00 | 1020.6 | |
| 20260903202052 | 79 | 203 | 6.0 | 5.0 | 0.00 | 0.00 | 0.00 | 1020.5 | |
| 20260903201055 | 79 | 229 | 4.0 | 3.0 | 0.00 | 0.00 | 0.00 | 1020.5 | |
| 20260903200057 | 79 | 195 | 3.0 | 3.0 | 0.00 | 0.00 | 0.00 | 1020.4 | |
| 20260903195059 | 80 | 177 | 3.0 | 1.0 | 0.00 | 0.00 | 0.00 | 1020.3 | |
| 20260903194059 | 80 | 217 | 3.0 | 3.0 | 0.00 | 0.00 | 0.00 | 1020.3 | |
| 20260903193101 | 80 | 207 | 5.0 | 5.0 | 0.00 | 0.00 | 0.00 | 1020.1 | |
| 20260903192104 | 80 | 163 | 4.0 | 3.0 | 0.00 | 0.00 | 0.00 | 1020.0 | |
| 20260903191050 | 81 | 240 | 3.0 | 4.0 | 0.00 | 0.00 | 0.00 | 1019.8 | |
| 20260903190409 | 81 | 207 | 6.0 | 5.0 | 0.00 | 0.00 | 0.00 | 1019.7 | |
| 20260903190053 | 81 | 207 | 6.0 | 5.0 | 0.00 | 0.00 | 0.00 | 1019.7 | |
| 20260903185055 | 81 | 212 | 5.0 | 5.0 | 0.00 | 0.00 | 0.00 | 1019.5 | |
| 20260903184058 | 81 | 232 | 6.0 | 4.0 | 0.00 | 0.00 | 0.00 | 1019.3 | |
| 20260903183058 | 81 | 243 | 5.0 | 5.0 | 0.00 | 0.00 | 0.00 | 1019.3 | |
| 20260903182101 | 82 | 217 | 9.0 | 6.0 | 0.00 | 0.00 | 0.00 | 1019.2 | |
| 20260903181103 | 83 | 195 | 7.0 | 9.0 | 0.00 | 0.00 | 0.00 | 1019.2 | |
| 20260903180101 | 83 | 231 | 8.0 | 8.0 | 0.00 | 0.00 | 0.00 | 1019.1 | |
| 20260903175103 | 83 | 162 | 9.0 | 8.0 | 0.00 | 0.00 | 0.00 | 1019.1 | |
| 20260903174102 | 83 | 214 | 10.0 | 9.0 | 0.00 | 0.00 | 0.00 | 1019.1 | |
| 20260903173104 | 85 | 183 | 7.0 | 9.0 | 0.00 | 0.00 | 0.00 | 1019.1 | |
| 20260903172107 | 85 | 262 | 10.0 | 9.0 | 0.00 | 0.00 | 0.00 | 1019.1 | |
| 20260903171108 | 85 | 259 | 7.0 | 8.0 | 0.00 | 0.00 | 0.00 | 1019.1 | |
| 20260903170111 | 86 | 239 | 6.0 | 5.0 | 0.00 | 0.00 | 0.00 | 1019.1 | |
| 20260903165106 | 87 | 197 | 7.0 | 7.0 | 0.00 | 0.00 | 0.00 | 1019.1 | |
| 20260903164109 | 86 | 215 | 7.0 | 7.0 | 0.00 | 0.00 | 0.00 | 1019.2 | |
| 20260903163111 | 87 | 221 | 10.0 | 9.0 | 0.00 | 0.00 | 0.00 | 1019.3 | |
| 20260903162114 | 87 | 203 | 10.0 | 14.0 | 0.00 | 0.00 | 0.00 | 1019.2 | |
| 20260903161113 | 87 | 208 | 12.0 | 11.0 | 0.00 | 0.00 | 0.00 | 1019.2 | |
| 20260903160116 | 88 | 222 | 8.0 | 12.0 | 0.00 | 0.00 | 0.00 | 1019.3 | |
| 20260903155112 | 88 | 218 | 10.0 | 14.0 | 0.00 | 0.00 | 0.00 | 1019.4 | |
| 20260903154105 | 88 | 225 | 12.0 | 13.0 | 0.00 | 0.00 | 0.00 | 1019.3 | |
| 20260903153107 | 88 | 231 | 11.0 | 9.0 | 0.00 | 0.00 | 0.00 | 1019.3 | |
| 20260903152101 | 89 | 221 | 9.0 | 9.0 | 0.00 | 0.00 | 0.00 | 1019.3 | |
| 20260903151102 | 90 | 242 | 11.0 | 10.0 | 0.00 | 0.00 | 0.00 | 1019.3 | |
| 20260903150104 | 89 | 222 | 11.0 | 10.0 | 0.00 | 0.00 | 0.00 | 1019.4 | |
| 20260903145100 | 91 | 222 | 6.0 | 10.0 | 0.00 | 0.00 | 0.00 | 1019.4 | |
| 20260903144102 | 92 | 233 | 7.0 | 10.0 | 0.00 | 0.00 | 0.00 | 1019.4 | |
| 20260903143054 | 91 | 210 | 11.0 | 6.0 | 0.00 | 0.00 | 0.00 | 1019.4 | |
| 20260903142056 | 92 | 248 | 7.0 | 4.0 | 0.00 | 0.00 | 0.00 | 1019.3 | |
| 20260903141059 | 92 | 212 | 8.0 | 8.0 | 0.00 | 0.00 | 0.00 | 1019.4 | |
| 20260903135103 | 92 | 229 | 10.0 | 10.0 | 0.00 | 0.00 | 0.00 | 1019.3 | |
| 20260903134105 | 93 | 188 | 8.0 | 13.0 | 0.00 | 0.00 | 0.00 | 1019.4 | |
| 20260903133108 | 92 | 238 | 5.0 | 4.0 | 0.00 | 0.00 | 0.00 | 1019.4 | |
| 20260903132104 | 93 | 212 | 9.0 | 8.0 | 0.00 | 0.00 | 0.00 | 1019.3 | |
| 20260903131107 | 92 | 197 | 7.0 | 8.0 | 0.00 | 0.00 | 0.00 | 1019.5 | |
| 20260903130109 | 93 | 170 | 6.0 | 0.0 | 0.00 | 0.00 | 0.00 | 1019.5 | |
| 20260903125105 | 92 | 131 | 5.0 | 6.0 | 0.00 | 0.00 | 0.00 | 1019.6 | |
| 20260903124106 | 92 | 179 | 5.0 | 8.0 | 0.00 | 0.00 | 0.00 | 1019.6 | |
| 20260903123108 | 92 | 110 | 7.0 | 7.0 | 0.00 | 0.00 | 0.00 | 1019.7 | |
| 20260903122111 | 93 | 121 | 5.0 | 6.0 | 0.00 | 0.00 | 0.00 | 1019.8 | |
| 20260903121107 | 91 | 97 | 6.0 | 7.0 | 0.00 | 0.00 | 0.00 | 1019.9 | |
| 20260903120110 | 91 | 135 | 5.0 | 5.0 | 0.00 | 0.00 | 0.00 | 1019.9 | |
| 20260903115112 | 92 | 97 | 6.0 | 1.0 | 0.00 | 0.00 | 0.00 | 1020.1 | |
| 20260903114115 | 92 | 84 | 4.0 | 7.0 | 0.00 | 0.00 | 0.00 | 1020.2 | |
| 20260903113118 | 92 | 183 | 8.0 | 8.0 | 0.00 | 0.00 | 0.00 | 1020.3 | |
| 20260903112120 | 92 | 170 | 6.0 | 5.0 | 0.00 | 0.00 | 0.00 | 1020.4 | |
| 20260903111123 | 91 | 222 | 1.0 | 4.0 | 0.00 | 0.00 | 0.00 | 1020.6 | |
| 20260903110119 | 91 | 221 | 3.0 | 4.0 | 0.00 | 0.00 | 0.00 | 1020.6 | |
| 20260903105121 | 91 | 97 | 7.0 | 5.0 | 0.00 | 0.00 | 0.00 | 1020.8 | |
| 20260903104123 | 90 | 259 | 1.0 | 0.0 | 0.00 | 0.00 | 0.00 | 1021.0 | |
| 20260903103126 | 90 | 132 | 2.0 | 6.0 | 0.00 | 0.00 | 0.00 | 1021.2 | |
| 20260903102129 | 88 | 142 | 7.0 | 7.0 | 0.00 | 0.00 | 0.00 | 1021.2 | |
| 20260903101131 | 88 | 232 | 3.0 | 0.0 | 0.00 | 0.00 | 0.00 | 1021.3 | |
| 20260903100134 | 89 | 86 | 2.0 | 1.0 | 0.00 | 0.00 | 0.00 | 1021.3 | |
| 20260903095125 | 88 | 169 | 5.0 | 5.0 | 0.00 | 0.00 | 0.00 | 1021.2 | |
| 20260903094128 | 87 | 114 | 2.0 | 4.0 | 0.00 | 0.00 | 0.00 | 1021.4 | |
| 20260903093131 | 87 | 82 | 1.0 | 0.0 | 0.00 | 0.00 | 0.00 | 1021.4 | |
| 20260903092133 | 85 | 191 | 0.0 | 0.0 | 0.00 | 0.00 | 0.00 | 1021.5 | |
| 20260903091135 | 84 | 138 | 5.0 | 4.0 | 0.00 | 0.00 | 0.00 | 1021.5 | |
| 20260903090137 | 83 | 228 | 0.0 | 0.0 | 0.00 | 0.00 | 0.00 | 1021.3 | |
| 20260903085138 | 82 | 308 | 0.0 | 0.0 | 0.00 | 0.00 | 0.00 | 1021.2 | |
| 20260903084134 | 81 | 308 | 0.0 | 0.0 | 0.00 | 0.00 | 0.00 | 1021.3 | |
| 20260903083137 | 79 | 280 | 3.0 | 3.0 | 0.00 | 0.00 | 0.00 | 1021.1 | |
| 20260903082140 | 78 | 285 | 4.0 | 6.0 | 0.00 | 0.00 | 0.00 | 1021.2 | |
| 20260903081136 | 77 | 349 | 5.0 | 5.0 | 0.00 | 0.00 | 0.00 | 1021.3 | |
| 20260903080136 | 76 | 325 | 4.0 | 3.0 | 0.00 | 0.00 | 0.00 | 1021.3 |